Sioux City, IA

4:51 AM CDT on July 27, 2017 (GMT -0500)
Sioux Gateway

Weather History for KSUX - December, 2011

Change the Weather History Date:

Saturday, December 24, 2011

  Actual Average Record
Temperature  
Mean Temperature 32 °F 21 °F  
Max Temperature 51 °F 30 °F 62 °F (1899)
Min Temperature 12 °F 11 °F -18 °F (1983)
Degree Days  
Heating Degree Days 33 44  
Month to date heating degree days 980 1002  
Since 1 July heating degree days 2352 2478  
Cooling Degree Days 0 0  
Month to date cooling degree days 0 0  
Year to date cooling degree days 1093 869  
Moisture  
Dew Point 17 °F    
Average Humidity 60    
Maximum Humidity 92    
Minimum Humidity 28    
Precipitation  
Precipitation 0.00 in 0.02 in 0.89 in (1893)
Month to date precipitation 0.60 0.65  
Year to date precipitation 23.95 27.59  
Snow  
Snow 0.00 in 0.20 in 6.00 in (1916)
Month to date snowfall 2.9 6.2  
Since 1 July snowfall 2.9 11.6  
Snow Depth 0.00 in    
Sea Level Pressure  
Sea Level Pressure 30.28 in    
Wind  
Wind Speed 5 mph (West)    
Max Wind Speed 15 mph    
Max Gust Speed 18 mph    
Visibility 10 miles    
Events      
T = Trace of Precipitation, MM = Missing Value Source: NWS Daily Summary

Daily Weather History Graph

Daily Weather History Graph

Search for Another Location

Airport or City:

Trip Planner

Search our weather history database for the weather conditions in past years. The results will help you decide how hot, cold, wet, or windy it might be!

Date:

Astronomy

Dec. 24, 2011 Rise Set
Actual Time 7:52 AM CST 4:57 PM CST
Civil Twilight 7:20 AM CST 5:29 PM CST
Nautical Twilight 6:45 AM CST 6:04 PM CST
Astronomical Twilight 6:11 AM CST 6:39 PM CST
Moon 7:41 AM CST (12/24) 5:11 PM CST (12/24)
Length of Visible Light 10h 08m
Length of Day
9h 04m
New Moon, 0% of the Moon is Illuminated
Dec 24
New Moon
Dec 24
New
Jan 1
First Quarter
Jan 9
Full
Jan 16
Last Quarter

Hourly Weather History & Observations

Time (CST) Temp. Windchill Dew Point Humidity Pressure Visibility Wind Dir Wind Speed Gust Speed Precip Events Conditions
12:52 AM 19.0 °F - 14.0 °F 81% 30.27 in 10.0 mi Calm Calm - N/A   Clear
1:52 AM 18.0 °F - 12.9 °F 81% 30.28 in 10.0 mi Calm Calm - N/A   Clear
2:52 AM 16.0 °F 8.8 °F 12.9 °F 88% 30.28 in 10.0 mi East 4.6 mph - N/A   Clear
3:52 AM 15.1 °F 6.4 °F 12.0 °F 88% 30.27 in 10.0 mi East 5.8 mph - N/A   Clear
4:52 AM 15.1 °F 9.4 °F 10.9 °F 84% 30.26 in 10.0 mi ESE 3.5 mph - N/A   Clear
5:52 AM 14.0 °F - 10.0 °F 84% 30.28 in 10.0 mi Calm Calm - N/A   Clear
6:52 AM 12.9 °F 3.8 °F 10.0 °F 88% 30.28 in 10.0 mi ESE 5.8 mph - N/A   Clear
7:52 AM 12.0 °F - 9.0 °F 88% 30.30 in 10.0 mi Calm Calm - N/A   Clear
8:52 AM 17.1 °F - 14.0 °F 88% 30.32 in 10.0 mi Calm Calm - N/A   Clear
9:52 AM 27.0 °F - 21.0 °F 78% 30.32 in 10.0 mi Calm Calm - N/A   Clear
10:52 AM 37.9 °F 32.1 °F 24.1 °F 57% 30.31 in 10.0 mi WNW 8.1 mph - N/A   Clear
11:52 AM 43.0 °F 37.2 °F 21.9 °F 43% 30.29 in 10.0 mi WNW 10.4 mph - N/A   Clear
12:52 PM 46.9 °F - 21.9 °F 37% 30.27 in 10.0 mi WNW 13.8 mph - N/A   Clear
1:52 PM 48.9 °F - 21.0 °F 33% 30.25 in 10.0 mi WNW 11.5 mph - N/A   Clear
2:52 PM 51.1 °F - 19.9 °F 29% 30.24 in 10.0 mi West 10.4 mph - N/A   Clear
3:52 PM 50.0 °F - 21.0 °F 32% 30.25 in 10.0 mi West 8.1 mph - N/A   Clear
4:52 PM 44.1 °F 39.5 °F 19.9 °F 38% 30.26 in 10.0 mi West 8.1 mph - N/A   Clear
5:52 PM 39.9 °F 35.8 °F 19.9 °F 45% 30.27 in 10.0 mi WSW 5.8 mph - N/A   Clear
6:52 PM 36.0 °F 29.6 °F 19.0 °F 50% 30.27 in 10.0 mi WSW 8.1 mph - N/A   Clear
7:52 PM 34.0 °F 28.8 °F 19.0 °F 54% 30.28 in 10.0 mi West 5.8 mph - N/A   Clear
8:52 PM 35.1 °F 31.0 °F 19.0 °F 52% 30.27 in 10.0 mi West 4.6 mph - N/A   Clear
9:52 PM 30.9 °F 27.5 °F 18.0 °F 59% 30.27 in 10.0 mi WNW 3.5 mph - N/A   Clear
10:52 PM 32.0 °F 28.7 °F 18.0 °F 56% 30.27 in 10.0 mi WNW 3.5 mph - N/A   Clear
11:52 PM 33.8 °F 27.7 °F 19.4 °F 56% 30.25 in 10.0 mi NW 6.9 mph - N/A   Clear